Wind_Speed
38 38 38 38 37 36 36 35 35 35 34 33 33 32 31 30 30 29 28 28 27 26 26 24 23 23 21 21 20 19 17 16 15 14 13 12 12 11 11 10 9 8 7 6 6 6 5 6 9 9 9 12 13 12 13 12 12 12 13 13 13 12 10 10 10 11 13 13 13 13 11 9 9 12 12 11 13 13 14 16 17 17 17 17 17 18 18 18
38 38 39 38 38 37 37 36 36 35 35 35 34 33 32 32 31 30 30 29 29 28 27 26 25 24 23 22 21 20 19 18 17 16 15 14 13 13 12 12 11 10 9 7 7 7 6 6 8 9 11 13 13 13 13 13 13 15 15 14 13 11 10 11 11 12 13 13 14 12 10 10 10 10 12 12 12 12 13 14 14 15 15 16 17 18 17 15
39 39 39 39 38 38 37 37 37 36 36 35 35 34 33 33 32 32 31 30 30 29 29 28 27 26 25 24 23 22 21 20 19 18 17 16 16 15 15 14 13 12 10 8 7 9 9 7 9 12 14 15 14 13 13 13 16 17 17 15 13 12 12 13 13 13 14 14 14 13 9 11 10 9 11 12 13 14 13 13 13 13 14 15 16 16 15 13
40 40 39 39 39 39 38 38 37 37 37 36 36 35 34 34 33 32 32 31 31 30 30 29 29 28 27 25 24 24 22 21 20 20 19 18 18 17 17 16 15 14 13 11 9 9 11 10 10 13 14 15 16 14 14 16 18 19 17 15 14 13 13 14 14 13 14 14 14 14 10 9 9 9 10 11 14 15 13 13 14 13 14 14 14 14 13 11
41 41 40 40 40 40 39 38 38 38 37 37 37 36 35 35 34 33 32 32 32 31 31 30 30 29 28 27 26 25 24 23 22 21 20 20 19 19 19 18 17 16 15 14 11 10 12 12 10 13 15 15 17 17 18 19 19 19 17 15 15 15 16 15 14 12 13 14 14 14 12 9 9 8 8 9 12 13 11 13 15 15 14 14 13 12 11 9
43 42 41 41 41 40 40 40 39 38 38 38 37 37 36 35 35 34 33 33 32 32 32 31 31 30 30 29 27 26 25 25 24 23 22 22 21 21 20 19 19 18 17 17 14 12 13 12 11 14 17 16 18 18 19 19 17 17 16 16 17 16 15 14 12 11 13 13 13 15 14 13 12 9 8 8 9 10 11 14 16 17 15 14 13 12 11 10
44 43 43 42 42 41 41 41 40 40 39 38 38 38 37 37 36 35 35 34 33 33 33 32 31 31 30 30 29 28 27 26 25 24 24 24 23 22 22 21 20 19 18 18 17 16 15 15 14 15 18 18 19 19 19 18 16 16 17 17 15 12 11 11 11 12 13 12 13 16 16 16 15 12 10 9 9 10 12 15 18 17 17 17 14 12 12 11
46 45 44 44 43 43 42 42 41 41 41 40 39 39 39 38 38 37 36 35 34 34 33 33 32 32 31 31 30 29 29 28 27 26 25 26 25 24 23 23 22 21 20 19 19 19 18 17 16 17 18 18 19 19 19 18 16 17 17 14 12 11 10 9 10 12 12 13 14 15 17 19 18 14 12 10 9 11 14 18 21 20 19 20 17 14 13 13
48 47 46 46 45 44 44 43 43 42 42 42 41 40 40 40 39 38 38 37 36 35 35 34 33 32 32 32 31 31 30 29 29 28 27 26 26 25 25 24 23 22 21 21 20 20 20 19 19 18 18 18 19 18 18 17 15 16 15 12 11 12 11 9 9 10 11 14 15 16 19 19 17 14 13 11 8 10 15 19 20 20 20 21 20 19 18 17
50 49 48 48 47 46 46 45 44 44 43 43 43 42 42 41 40 40 39 39 38 37 36 35 35 34 33 32 32 33 32 31 31 30 28 28 27 27 27 26 25 24 23 22 22 21 21 21 20 20 19 18 18 17 16 15 14 13 14 14 13 12 11 9 9 11 13 15 14 15 18 16 13 12 12 11 10 12 16 18 20 20 20 20 22 22 19 18
51 51 50 50 49 48 48 47 46 45 45 45 44 44 43 43 42 42 41 40 40 39 38 37 37 35 34 34 34 34 33 32 33 32 30 29 29 29 28 27 27 26 24 23 23 23 23 22 22 21 21 20 19 18 16 15 14 13 13 16 15 14 12 10 11 14 15 14 12 15 18 15 11 8 8 9 11 14 15 18 22 20 17 18 21 21 19 20
53 52 52 51 51 50 50 49 48 47 47 46 46 45 45 44 44 43 43 42 42 41 40 39 38 37 36 35 35 36 34 34 34 33 33 31 30 30 29 29 28 27 26 25 24 24 24 24 23 22 22 21 21 19 18 17 16 15 15 16 15 15 15 12 12 15 15 13 12 16 18 16 12 9 9 10 10 11 13 16 18 16 14 16 19 21 22 24
53 53 53 53 52 52 51 51 50 49 49 48 48 47 47 46 46 45 44 44 43 43 42 41 41 39 38 37 37 38 36 35 35 35 35 33 31 31 31 31 30 29 28 27 26 25 25 25 24 23 23 22 22 20 19 19 18 17 17 15 16 16 14 12 12 15 15 13 14 17 17 17 13 10 13 13 10 8 12 15 13 12 16 20 23 24 25 26
54 54 54 53 53 53 52 52 52 51 50 50 49 49 48 48 47 47 46 46 45 45 44 43 42 41 40 39 39 40 38 36 37 36 36 35 34 32 32 32 32 31 30 28 28 26 26 26 25 24 23 23 22 21 20 19 18 16 13 13 17 17 15 14 13 15 15 14 17 17 16 18 16 14 15 14 12 11 13 17 16 16 20 22 23 23 23 25
54 54 54 54 54 53 53 52 52 52 52 51 51 51 50 50 50 49 48 47 47 46 45 45 44 42 42 40 40 42 39 38 38 37 37 37 35 34 33 33 32 32 31 30 29 28 27 26 25 25 24 24 23 22 21 19 17 14 9 11 18 18 16 15 13 14 17 17 18 18 16 16 15 15 16 16 15 14 17 18 16 17 22 22 21 21 22 25
55 55 54 54 54 54 53 53 52 52 52 52 52 52 52 51 51 51 50 49 49 48 47 46 46 45 43 42 43 44 40 39 40 39 40 38 37 36 35 34 33 33 32 31 30 29 28 27 26 26 25 25 24 23 22 19 17 16 13 15 21 22 20 19 16 15 17 18 18 18 16 16 16 16 17 17 16 15 16 15 14 17 21 21 19 20 23 24
55 55 55 55 55 54 54 53 53 53 53 53 53 53 52 52 52 52 52 51 51 50 49 48 47 46 45 44 46 43 39 41 42 42 41 39 38 38 37 36 34 33 33 33 32 31 29 28 27 27 27 26 25 25 22 20 18 18 18 19 23 24 23 25 23 16 16 19 17 17 17 16 16 18 18 19 19 16 13 12 12 15 19 20 21 22 25 26
54 54 55 55 55 55 54 54 54 54 54 53 53 53 53 53 53 52 52 52 52 51 51 49 48 49 47 46 47 44 41 44 46 43 40 40 40 40 39 38 36 35 35 34 34 32 30 29 28 28 28 28 27 27 24 21 20 20 21 23 25 27 26 26 24 17 16 19 19 18 18 16 14 17 19 20 20 15 11 12 12 12 15 19 23 26 27 27
52 52 53 53 54 54 54 53 53 54 54 53 53 53 53 53 52 52 52 52 52 52 51 49 50 51 47 48 49 45 43 47 47 44 42 43 42 41 41 39 38 37 36 36 35 33 31 30 29 29 29 29 28 29 27 23 21 22 23 24 26 29 29 26 22 17 16 17 19 17 16 15 12 15 19 20 18 11 10 14 16 13 13 18 24 26 26 26
48 49 50 50 51 51 52 51 51 52 52 53 53 52 53 53 51 51 52 53 52 52 50 51 52 50 48 50 50 45 46 49 47 45 45 45 43 43 42 40 41 40 39 38 36 34 33 31 32 31 30 29 29 31 30 25 23 22 22 26 28 28 29 27 24 20 18 18 18 14 15 16 13 15 22 21 17 13 11 15 18 16 15 18 22 23 24 25
44 45 46 46 47 48 48 48 48 49 49 50 51 51 52 52 51 51 52 52 52 52 51 51 52 50 50 51 49 47 49 49 47 48 48 46 45 45 43 42 42 41 41 40 37 35 34 34 34 32 30 30 30 31 31 30 28 25 25 28 29 29 28 28 27 24 22 20 17 12 14 18 15 18 25 22 17 16 13 15 17 17 19 20 20 21 23 25
42 42 43 43 44 44 44 44 44 44 45 46 46 47 49 49 49 50 51 50 51 51 50 51 52 51 51 50 49 50 50 49 50 51 48 46 47 46 44 44 44 43 43 41 39 37 36 37 36 32 31 31 31 32 32 32 31 29 29 29 29 30 30 28 27 26 24 20 17 15 16 19 17 20 25 23 18 17 17 19 18 19 23 21 18 21 23 26
43 43 43 43 43 43 42 42 42 42 42 42 43 44 44 45 45 46 47 48 49 49 49 50 50 50 50 49 49 50 51 51 52 51 48 47 48 47 45 45 45 43 44 43 41 39 37 39 38 33 32 32 32 32 32 32 32 32 32 30 30 30 30 30 28 27 25 21 19 19 19 19 19 21 22 21 18 17 19 23 21 22 25 24 22 23 24 24
45 45 44 44 44 44 43 42 42 42 42 42 42 42 42 42 42 43 44 45 46 46 47 47 47 48 47 47 48 50 51 50 50 50 48 48 49 48 46 46 46 44 44 44 43 41 39 41 40 35 32 34 34 32 31 32 34 34 32 31 32 30 30 32 31 28 25 22 20 20 18 16 18 20 19 19 16 16 20 25 26 25 25 27 27 24 22 20
47 47 46 46 45 45 44 44 43 43 43 43 43 43 42 42 41 42 42 43 43 42 43 44 44 44 44 45 47 48 48 47 48 49 46 48 50 48 47 46 45 45 44 45 43 41 41 42 41 36 35 36 36 34 32 33 35 35 33 33 34 32 31 32 31 29 27 23 21 22 19 16 17 19 19 18 15 18 23 26 29 28 26 28 26 20 16 12
47 47 47 47 46 45 45 45 44 44 43 43 44 43 43 42 42 43 42 44 43 41 43 42 41 42 42 43 44 44 45 44 45 45 43 48 49 47 47 46 45 46 45 44 42 40 42 43 41 38 37 36 36 36 35 34 35 35 34 36 36 33 32 32 30 28 28 26 23 22 20 17 16 17 20 20 18 22 26 26 27 28 27 27 25 16 8 5
44 44 44 44 44 43 42 42 42 41 41 42 43 43 43 43 43 43 44 46 43 41 43 42 41 42 41 41 41 41 41 39 42 43 42 46 45 43 45 45 45 46 45 43 41 41 43 43 41 38 37 37 36 36 36 34 34 34 33 35 37 35 33 32 30 28 28 28 26 22 19 19 17 15 20 24 21 22 25 26 27 28 27 27 26 19 7 15
41 41 41 40 40 39 38 38 38 38 38 39 39 40 40 41 43 43 44 46 41 41 45 44 42 42 41 41 41 39 38 39 42 41 39 43 41 40 43 42 42 44 43 41 40 42 42 42 41 38 38 39 37 36 35 33 32 33 33 34 37 35 33 31 30 29 28 27 27 23 19 21 20 19 24 26 22 22 27 29 28 29 30 29 29 24 18 27
42 41 40 39 39 38 37 37 36 36 36 36 37 38 38 39 40 40 43 44 40 41 47 45 42 42 42 41 41 39 38 41 40 36 38 42 39 38 40 39 39 41 40 38 40 42 41 41 40 38 39 40 37 35 34 33 33 34 33 33 35 35 33 30 28 27 25 25 26 24 20 22 23 24 26 26 25 27 29 28 27 29 32 31 30 27 24 29
45 44 43 42 41 40 39 38 37 36 35 35 36 36 37 38 37 38 40 39 37 41 45 43 42 42 43 42 41 40 40 41 38 37 40 40 36 37 38 37 37 38 37 35 38 41 39 38 38 39 40 38 35 35 35 34 34 34 33 33 33 35 34 30 28 27 25 25 26 24 22 22 23 25 24 24 27 30 30 28 27 28 31 32 31 29 28 30
49 48 46 45 45 43 42 41 40 38 36 35 36 35 37 37 37 39 38 35 36 40 41 40 41 42 42 42 42 41 41 40 38 39 40 38 36 37 36 35 36 36 35 34 37 38 36 34 36 38 37 36 34 34 34 34 34 33 33 33 31 33 32 29 28 28 26 26 24 22 23 22 22 23 21 21 27 31 30 30 29 28 29 31 32 31 32 34
53 51 50 49 48 46 45 45 43 40 39 37 36 36 36 36 38 39 37 37 39 38 36 37 40 40 41 42 42 41 41 40 39 39 39 37 37 36 34 34 34 34 35 35 35 35 33 32 35 36 35 34 34 33 34 34 34 33 32 31 30 30 29 28 28 27 26 26 23 22 24 23 23 22 18 19 27 31 32 33 33 31 31 31 32 33 34 37
57 56 54 52 51 50 48 47 44 42 41 39 38 37 36 37 39 38 39 41 39 36 36 37 38 39 39 40 40 41 41 40 39 39 38 38 36 35 34 33 33 34 35 34 33 34 33 32 34 34 32 31 32 32 34 34 33 33 31 30 30 29 28 29 29 27 26 26 24 22 23 26 25 20 19 23 28 31 33 35 35 34 35 34 33 34 37 38
60 59 57 55 54 53 51 49 47 45 43 41 39 38 37 39 39 38 41 41 36 37 39 39 38 38 38 39 39 40 41 40 39 39 37 37 36 35 34 32 33 35 34 32 33 33 32 32 33 30 28 30 32 33 33 32 31 31 31 30 29 29 28 29 29 27 26 25 23 23 26 27 23 18 21 27 29 31 33 36 36 36 36 36 35 36 38 38
62 61 59 58 57 55 53 51 49 47 44 42 41 39 39 41 40 40 42 38 34 37 39 38 39 39 37 38 39 39 39 39 39 38 36 36 35 34 34 33 33 34 33 32 33 32 31 33 30 26 27 31 31 31 30 29 30 30 30 29 30 30 28 28 28 27 26 24 24 26 28 27 21 20 25 29 31 32 32 35 38 38 37 36 35 36 37 37
63 62 61 60 58 56 55 53 50 48 46 43 41 40 41 42 41 41 39 34 33 37 39 39 40 39 38 38 38 38 38 38 37 37 36 35 34 34 33 32 32 33 32 31 32 31 31 32 27 23 28 30 28 29 29 28 29 29 29 30 30 29 27 26 27 27 26 25 26 29 29 29 26 25 27 31 33 33 32 33 36 38 38 38 37 39 38 37
65 63 62 61 60 58 57 54 52 50 46 43 42 43 43 42 42 39 36 35 37 38 38 39 39 38 38 38 38 38 37 37 37 36 35 34 34 33 32 32 31 31 31 31 31 29 30 31 27 23 28 29 27 27 27 27 28 28 29 30 28 27 26 26 27 27 27 27 28 29 30 31 28 26 28 33 36 36 35 34 33 35 38 38 38 39 39 38
67 65 63 63 61 59 58 55 52 50 46 43 44 44 44 43 41 37 36 38 38 37 37 37 37 37 38 38 38 38 37 36 36 35 34 34 33 32 31 31 29 29 30 29 28 27 29 31 27 23 27 27 24 25 26 27 27 26 27 27 25 26 26 25 27 28 27 28 29 30 33 33 28 25 27 32 36 37 37 35 32 33 37 38 37 37 36 37
69 67 66 64 61 60 58 55 52 50 45 44 45 46 44 43 39 36 38 39 37 36 37 35 35 37 38 39 38 37 36 35 35 35 34 33 31 30 31 30 28 29 28 27 26 25 27 30 27 24 26 24 22 25 26 23 24 25 25 24 24 27 27 25 26 27 27 29 30 32 35 33 26 24 26 28 32 36 37 36 33 34 36 38 38 37 36 36
71 70 68 65 62 61 58 55 52 49 46 46 47 46 45 42 39 39 40 38 36 36 35 33 35 38 38 38 37 35 35 35 34 35 34 32 31 31 32 30 28 28 28 27 25 24 25 27 26 23 23 24 24 26 24 20 21 23 23 23 24 26 27 25 26 27 27 29 30 31 33 30 23 22 25 28 31 35 38 37 34 35 35 36 38 38 38 36
72 72 69 65 64 62 59 56 52 50 49 48 47 46 45 42 40 40 40 38 36 36 34 33 36 38 37 37 37 36 35 35 34 34 33 32 32 32 30 29 29 28 29 28 26 25 25 26 25 20 20 24 25 23 22 22 22 22 23 24 23 25 26 24 25 27 27 28 29 30 32 30 23 23 29 31 33 36 39 37 34 34 34 34 35 35 35 34
73 72 69 67 66 63 60 57 54 52 50 48 47 48 46 42 41 41 40 38 37 34 33 34 35 36 36 37 37 35 34 33 33 34 34 32 33 32 29 30 32 30 29 29 27 26 26 25 25 21 21 25 24 21 22 23 22 21 23 24 24 25 26 24 25 27 27 28 29 30 34 31 24 26 33 34 35 37 37 35 32 32 31 32 32 32 32 31
73 72 69 68 67 63 60 57 55 52 50 50 50 49 46 43 42 42 40 39 36 34 33 33 34 35 36 36 35 34 34 34 33 34 34 33 34 32 30 33 34 30 29 30 28 27 26 27 26 23 22 24 24 22 23 24 22 22 23 23 23 24 25 25 26 28 28 28 28 32 35 30 24 26 30 33 36 36 34 32 31 30 30 31 32 32 31 31
73 71 69 69 67 63 60 57 54 52 51 51 50 48 46 45 43 42 40 38 36 34 33 32 33 34 34 34 34 35 35 33 33 34 34 34 34 31 32 35 34 30 30 29 27 25 26 26 26 24 23 24 24 24 24 24 23 22 22 22 22 23 24 25 27 28 27 28 31 34 33 27 24 26 29 33 36 32 29 29 29 28 29 31 32 32 32 33
72 69 68 67 65 61 59 57 56 55 54 53 51 49 48 46 43 42 40 38 36 34 32 31 32 32 32 33 34 35 35 33 33 34 34 34 34 32 34 36 34 31 30 28 26 25 26 25 25 25 25 24 24 25 25 24 23 23 22 22 23 23 24 24 26 27 27 30 33 33 30 26 25 29 32 34 33 30 28 29 29 29 29 31 33 34 34 35
73 69 67 66 63 59 59 58 57 56 55 52 49 48 47 45 43 42 40 38 36 34 33 31 31 30 32 34 34 34 34 33 33 34 34 34 34 33 34 35 34 31 28 27 26 24 24 25 25 26 25 25 25 26 26 24 22 23 22 21 22 23 23 24 26 26 27 30 32 30 28 26 25 29 32 30 28 28 28 29 30 30 31 33 35 36 36 37
73 69 67 66 63 61 61 60 58 56 54 51 48 47 47 45 43 42 40 38 36 35 33 30 29 31 32 33 33 34 34 33 32 33 34 33 34 35 35 34 32 29 27 26 25 24 24 25 25 26 26 26 26 27 26 23 20 20 20 18 19 19 20 22 24 25 27 29 29 27 27 28 26 27 29 27 25 26 27 28 29 31 33 35 37 37 38 39
73 71 70 67 63 62 61 59 57 56 54 54 52 50 49 46 44 42 40 39 37 35 32 30 30 31 32 32 33 34 34 32 32 33 33 34 35 35 33 32 30 28 26 24 23 24 25 25 25 25 26 26 26 27 26 22 18 18 18 17 17 17 17 18 20 22 24 25 25 25 26 27 26 27 28 28 26 27 29 31 32 33 35 37 38 38 39 40
75 74 72 68 62 61 60 59 58 57 56 55 53 49 47 44 42 42 41 39 38 34 32 31 31 31 32 32 33 33 33 33 33 33 34 35 35 32 29 28 27 25 24 22 22 23 24 24 25 25 25 25 26 26 25 22 19 19 19 18 17 17 18 17 18 19 18 18 21 23 22 21 23 26 28 28 28 29 30 32 34 36 38 39 39 40 41 42
77 75 71 65 60 60 60 59 58 57 57 55 51 49 47 44 42 42 41 39 37 35 33 32 30 30 31 32 32 33 33 33 33 33 34 35 32 29 27 26 25 24 23 21 21 22 23 23 23 23 24 24 24 24 24 22 22 22 22 20 19 18 18 17 16 14 11 13 20 22 19 19 22 27 28 29 30 31 32 34 36 37 39 40 41 42 43 44
77 73 68 63 61 60 60 59 57 57 55 52 50 48 46 44 43 42 41 40 38 35 33 32 30 30 30 31 33 33 33 33 33 34 34 32 29 28 27 25 24 22 19 18 19 21 22 22 22 22 23 22 22 23 23 23 24 24 22 21 20 18 17 16 15 11 7 11 19 22 20 20 22 25 27 30 32 33 35 37 39 40 41 42 43 44 45 45
77 73 70 67 64 62 61 59 58 56 54 51 50 48 46 44 43 42 41 40 38 36 34 32 30 29 30 31 32 34 34 34 34 34 32 30 29 28 25 23 24 21 16 16 18 21 21 20 19 19 20 21 22 21 21 23 22 19 16 17 18 17 16 15 13 11 9 12 18 22 21 21 22 25 28 30 33 37 40 42 43 44 44 44 44 44 45 45
Wind_Direction
241 241 240 239 240 241 241 243 244 245 247 248 249 251 253 255 257 259 261 263 265 266 267 268 268 270 271 272 273 274 275 276 276 277 278 278 278 278 278 278 278 279 282 288 299 305 304 310 312 305 291 289 292 300 310 306 304 312 312 312 310 302 294 294 299 301 305 307 307 308 307 315 317 312 311 303 294 288 283 282 282 281 282 285 285 286 290 293
240 241 241 240 240 240 241 242 243 244 245 247 248 250 251 253 255 257 259 261 263 264 265 266 267 268 269 271 272 273 273 274 276 277 278 278 279 278 278 278 278 279 280 286 297 298 288 297 302 287 278 285 292 297 301 304 310 317 318 318 315 307 299 304 306 306 314 315 311 311 310 320 322 315 317 312 309 305 296 291 288 283 281 279 279 282 285 284
239 241 241 241 241 241 241 242 243 243 244 246 247 248 250 252 254 255 257 259 261 263 264 265 266 266 267 269 270 271 272 273 274 275 276 277 278 278 279 279 280 281 281 282 284 287 285 289 282 270 278 291 298 303 305 311 316 318 319 318 314 305 301 308 311 315 320 318 316 317 322 326 326 327 319 312 320 321 315 312 305 298 294 288 285 286 286 284
239 240 241 241 241 241 241 242 243 244 244 245 246 247 249 250 252 254 256 258 260 262 263 264 266 266 267 267 269 270 271 272 273 273 274 275 275 276 277 278 279 281 282 280 277 282 286 284 277 274 282 292 298 305 311 315 318 318 318 317 312 305 301 305 311 320 322 323 325 326 332 329 328 336 325 317 324 324 326 332 325 317 311 304 300 297 292 286
239 240 240 241 242 242 241 242 243 244 245 245 246 247 248 249 250 252 255 257 258 260 262 264 265 266 266 266 267 269 270 271 271 272 273 272 272 273 275 276 278 280 281 280 280 283 284 282 280 278 278 286 295 300 306 313 319 318 317 317 316 312 308 307 311 323 329 331 336 336 336 332 330 335 327 324 327 329 338 342 337 331 326 319 315 310 301 288
240 240 240 241 242 242 242 242 242 243 244 246 246 247 247 248 249 250 252 255 257 259 260 262 264 265 266 266 266 267 268 269 269 270 270 270 271 272 273 275 276 278 279 280 279 274 273 274 275 276 277 287 295 298 304 312 320 320 317 318 322 322 320 320 318 329 342 346 354 352 346 339 334 330 323 324 335 342 340 339 338 334 333 332 325 318 310 297
241 241 241 241 242 242 243 243 243 243 243 244 246 247 247 248 249 249 250 252 254 256 258 260 262 264 265 266 266 266 267 267 268 268 268 269 270 271 272 273 274 276 277 279 279 275 271 270 270 273 277 284 291 295 302 309 316 315 315 320 326 327 329 336 327 326 340 351 0 360 352 343 338 332 325 332 347 348 336 333 337 335 337 337 330 324 317 308
242 242 242 242 243 243 243 244 244 244 244 244 244 246 247 248 248 249 250 250 252 254 256 258 259 262 264 265 266 266 266 266 267 267 268 269 270 271 271 272 273 274 276 277 279 279 277 275 274 275 278 285 291 295 300 307 313 310 314 323 324 325 332 342 333 327 338 343 345 350 351 349 347 341 334 337 351 350 338 337 337 336 340 337 331 333 328 319
242 243 243 243 244 244 244 244 245 245 245 245 245 245 246 247 248 249 249 250 251 252 253 255 257 259 261 263 265 265 265 266 266 266 267 268 270 271 271 271 272 273 274 276 278 279 280 280 280 280 282 288 293 297 304 312 316 311 315 322 313 317 323 317 316 324 336 336 328 330 343 354 357 352 347 340 336 343 342 344 343 336 336 335 331 335 334 328
242 243 243 244 244 244 245 245 246 246 246 247 247 246 246 247 248 248 249 250 250 251 252 253 255 256 258 261 263 263 264 265 265 265 265 267 268 269 270 271 272 272 273 275 277 279 281 282 284 285 286 290 292 295 303 310 313 308 312 317 308 311 315 298 303 322 333 331 318 318 334 350 359 0 4 353 329 329 333 341 344 335 329 331 330 329 331 331
241 242 243 244 244 245 245 245 246 247 247 248 248 248 248 248 248 249 249 249 250 250 251 252 253 255 256 258 260 262 263 264 265 265 265 265 266 268 270 270 271 272 273 275 277 278 281 283 284 287 288 290 291 293 299 302 302 299 303 312 309 310 314 299 303 319 323 323 319 319 323 333 349 356 5 353 329 321 321 333 344 341 336 339 337 331 329 331
241 242 243 243 244 245 245 245 246 247 247 248 249 249 250 250 250 250 250 250 250 251 251 251 252 253 254 256 258 259 261 262 264 265 265 265 265 267 269 270 271 272 273 274 276 278 280 282 284 286 289 291 293 295 298 298 299 301 304 308 304 306 313 308 310 317 313 310 319 319 314 323 345 345 329 328 328 315 307 326 347 350 341 338 331 319 317 321
241 241 242 243 243 244 245 245 246 246 247 248 249 250 250 250 251 251 251 251 251 251 252 252 252 252 252 253 255 257 258 260 262 263 264 265 264 266 268 269 270 271 273 274 275 277 279 281 283 285 287 290 293 296 298 300 303 309 312 306 298 300 305 303 308 312 307 303 312 312 308 318 333 328 315 318 328 311 293 307 326 328 320 319 315 309 308 312
241 241 242 242 243 243 244 245 245 246 246 247 248 249 250 251 251 251 252 252 252 253 253 253 253 253 252 252 254 256 256 257 259 261 263 264 264 264 266 268 269 271 272 272 274 275 277 279 281 283 286 288 290 294 297 301 305 310 316 304 296 298 292 292 306 309 304 296 302 311 311 316 322 319 312 318 326 314 302 300 298 310 320 321 316 310 310 312
241 241 242 242 243 243 244 244 245 246 246 247 247 248 249 250 251 251 252 252 252 253 253 254 254 254 254 254 255 256 256 257 259 261 262 262 263 263 264 265 267 269 270 271 272 273 275 277 279 282 284 286 288 291 294 298 303 306 306 286 287 292 281 284 303 306 301 292 298 310 311 312 313 309 306 314 319 312 315 309 295 312 326 324 315 308 312 314
241 242 242 243 243 244 244 245 246 246 247 247 247 248 248 249 250 251 252 252 253 253 254 254 255 255 255 255 254 256 257 259 259 259 260 261 263 263 263 264 265 267 269 270 271 272 273 274 277 280 281 283 284 287 290 294 295 292 288 275 279 286 279 281 295 299 295 290 296 303 304 308 304 300 301 305 309 308 315 307 293 314 326 325 317 306 309 310
241 242 242 243 243 244 245 245 246 247 247 248 248 248 248 249 249 250 251 252 253 253 254 254 255 256 256 255 255 257 258 259 258 257 259 262 263 263 263 263 264 266 267 268 269 269 271 273 276 278 279 281 281 284 286 287 286 285 284 279 278 277 273 281 290 289 282 283 294 296 296 303 295 296 300 296 297 301 307 295 285 310 323 327 322 308 304 306
241 242 243 243 244 244 245 245 246 247 248 248 248 249 249 249 249 250 251 252 253 253 254 255 256 255 255 256 257 257 257 257 258 259 261 262 262 263 263 264 264 264 265 266 267 268 270 272 274 276 277 279 282 283 283 281 282 282 280 279 277 273 272 280 285 284 276 279 296 299 294 297 290 294 298 295 297 301 306 286 268 287 303 313 317 310 305 305
241 241 242 243 244 244 245 245 246 246 247 248 248 249 249 250 250 251 251 252 252 253 254 255 255 255 256 257 257 257 257 257 259 260 260 260 261 262 263 265 265 264 264 265 266 268 270 271 272 273 275 279 282 282 281 279 279 280 279 278 277 280 283 285 284 285 280 284 298 296 285 286 289 290 286 289 295 294 303 287 264 267 283 295 305 307 306 306
239 240 240 241 242 243 243 244 244 245 246 247 248 248 249 249 250 251 251 252 253 253 254 254 255 255 256 256 258 258 257 257 259 260 259 259 260 261 262 264 265 265 265 264 266 267 268 269 269 271 273 277 279 280 282 280 275 275 276 277 279 283 286 287 289 289 287 293 298 286 274 277 276 275 276 280 283 278 290 290 273 269 276 285 292 299 307 311
236 237 238 239 240 241 241 242 243 244 245 246 247 247 248 249 249 250 251 252 253 254 254 254 256 256 255 257 258 258 257 259 260 259 258 259 259 260 261 262 263 264 265 265 266 266 267 268 267 269 272 274 275 278 280 279 276 275 273 277 282 284 284 286 291 293 294 298 295 278 274 277 268 267 273 274 275 274 276 280 276 271 274 280 287 298 308 315
235 236 237 237 238 239 239 239 240 241 243 244 245 246 247 248 248 249 250 251 252 253 254 255 256 256 256 257 258 258 259 259 258 258 259 260 261 261 260 260 261 262 265 266 266 266 267 267 267 268 269 271 274 276 277 278 280 281 280 281 282 282 283 286 288 290 294 296 289 275 272 275 263 259 270 274 271 266 265 275 278 272 273 275 287 306 310 317
237 237 237 238 238 239 239 239 239 240 241 242 243 244 245 246 247 248 249 250 251 252 253 254 255 256 257 258 258 258 258 257 258 260 261 261 261 261 261 260 260 261 263 265 265 265 265 266 267 266 268 270 270 271 275 279 280 280 281 282 281 281 284 286 286 288 290 289 285 278 271 271 263 255 265 274 272 265 272 286 283 266 266 273 286 302 308 325
238 238 238 238 239 240 240 240 240 241 242 243 243 244 245 245 246 247 248 250 250 251 252 253 255 256 257 257 257 257 258 259 260 260 261 261 262 262 261 261 261 261 261 263 264 264 265 266 266 267 268 268 267 268 271 275 278 278 279 280 279 280 283 285 285 286 285 284 282 276 267 266 268 264 263 268 272 273 278 286 280 262 259 272 281 293 310 342
238 239 239 239 239 240 241 241 241 241 242 243 244 245 246 246 246 247 248 249 250 251 252 253 253 255 255 256 256 257 259 260 260 261 262 262 261 261 261 261 261 261 260 261 262 264 265 266 267 267 266 267 269 270 270 270 273 276 278 278 278 279 281 281 283 283 282 280 272 266 261 257 265 270 268 265 262 265 269 275 276 267 262 268 272 287 321 358
238 238 238 239 239 240 241 241 241 242 243 243 245 245 246 247 247 248 248 249 250 251 252 252 253 254 254 255 256 258 259 260 262 263 261 260 260 261 262 262 262 261 261 261 262 264 265 265 267 267 266 267 269 270 269 269 270 273 274 276 278 279 280 280 280 280 280 278 271 265 260 250 253 268 273 266 254 255 260 263 269 268 265 265 263 272 329 329
235 235 235 236 237 237 238 239 240 241 242 243 244 245 246 247 247 248 248 249 250 252 254 253 252 254 254 255 256 257 259 262 262 261 260 261 263 264 263 262 261 261 261 262 263 262 262 264 266 267 268 268 267 267 268 269 270 272 272 273 275 278 279 279 278 278 279 277 274 269 257 244 244 256 264 263 256 253 254 253 257 259 258 260 257 255 255 257
231 231 231 231 232 234 235 237 239 240 241 243 244 245 246 247 247 247 248 250 250 251 253 252 251 253 253 254 255 256 259 259 259 261 263 264 263 263 263 263 262 262 263 263 262 261 261 263 265 266 266 265 265 266 268 270 270 270 270 270 273 276 277 277 277 278 278 275 272 267 252 241 239 240 249 256 256 251 253 254 253 256 258 262 263 257 247 252
227 227 228 230 231 233 235 237 239 241 242 243 244 245 246 247 248 248 249 250 249 250 252 252 252 253 254 254 255 256 256 256 259 263 263 262 263 264 264 264 264 264 264 263 262 261 261 262 263 264 264 264 266 267 267 268 267 267 267 266 270 274 275 275 275 275 273 268 268 267 254 241 238 241 249 257 257 250 249 251 252 260 265 265 265 261 255 255
227 227 228 231 233 235 237 239 241 242 244 245 246 246 247 248 249 249 250 251 250 250 251 253 253 253 253 254 254 254 254 256 258 259 260 263 265 265 264 265 265 265 265 264 262 261 260 261 262 262 262 264 266 267 266 266 265 266 265 263 263 268 272 274 273 272 269 264 264 266 261 248 241 247 254 258 259 255 251 251 252 257 262 262 263 263 263 262
227 228 229 231 234 236 238 240 242 244 246 247 248 248 248 248 249 250 251 252 250 249 251 253 253 252 253 253 253 253 254 255 256 256 259 263 264 264 265 266 265 265 265 263 261 262 262 261 261 261 262 264 263 263 264 264 264 264 263 263 263 265 270 271 268 266 264 263 262 261 259 252 244 247 252 255 259 259 256 257 258 258 259 262 266 269 268 266
229 230 231 233 235 237 239 241 243 244 246 247 249 249 249 250 250 250 252 251 250 251 254 255 254 253 253 253 252 252 253 254 255 255 258 260 261 264 266 265 266 265 263 261 261 263 262 259 258 258 259 260 261 262 262 262 262 262 262 264 264 264 267 266 264 263 260 259 257 254 253 251 247 245 243 249 261 264 261 260 261 263 263 262 264 269 270 268
230 231 232 234 236 238 239 241 243 244 245 247 249 251 250 250 250 251 252 251 252 255 255 254 254 255 253 253 252 252 252 252 253 255 256 258 260 263 264 266 266 265 262 262 262 262 260 258 256 257 258 260 260 259 259 259 261 263 263 262 262 262 260 259 261 262 259 256 252 248 247 247 248 246 241 244 255 265 267 264 259 260 263 265 266 268 269 268
230 231 233 234 236 238 240 241 242 243 245 246 249 251 251 250 251 251 251 252 254 254 254 254 255 255 254 253 253 252 252 251 252 254 256 257 259 261 263 265 265 264 263 263 261 260 260 258 257 258 257 256 255 255 257 260 262 263 262 261 260 258 255 256 259 260 259 258 250 243 244 246 243 243 248 250 255 264 271 269 264 261 264 264 263 264 268 272
231 232 232 234 236 237 239 240 241 242 244 245 248 251 251 250 250 250 251 256 258 255 255 255 254 254 255 254 253 252 252 251 251 253 254 255 257 258 261 263 264 264 264 261 259 259 259 258 257 257 255 252 254 257 259 261 261 261 262 261 258 257 255 254 256 255 255 255 247 240 244 246 236 232 243 247 251 258 264 267 267 267 268 267 265 267 272 278
232 232 232 234 235 236 238 239 240 241 242 245 247 249 250 249 249 251 255 260 257 253 253 252 252 253 254 254 253 252 251 251 251 251 252 254 255 257 259 261 263 263 262 259 258 258 257 258 257 254 254 254 254 256 257 257 258 259 260 259 258 260 259 255 254 253 252 251 247 244 245 244 235 231 240 243 245 252 258 264 266 267 269 272 274 276 279 281
232 232 232 233 234 235 236 237 239 241 242 244 246 248 248 248 249 253 255 254 252 253 253 253 253 253 252 253 252 251 251 250 250 250 251 252 253 255 257 260 262 262 260 258 256 256 257 258 256 250 252 255 254 257 258 257 258 258 258 260 263 263 259 254 253 252 249 247 248 249 249 248 241 233 240 245 245 249 256 262 266 268 272 276 280 283 283 282
231 231 232 233 233 234 236 237 238 240 241 243 245 247 247 247 249 251 251 250 252 255 255 254 253 252 252 252 251 250 249 249 249 249 249 250 251 254 256 258 259 259 258 257 256 255 255 257 255 249 251 255 257 257 255 254 257 257 258 261 262 259 256 253 252 250 248 245 246 248 251 254 250 237 238 245 246 250 256 261 266 269 272 276 280 284 285 283
231 231 231 232 233 234 235 236 237 239 240 242 244 245 245 246 248 247 247 250 253 253 254 255 253 251 250 250 250 250 249 249 248 248 247 248 250 252 253 254 255 257 258 258 257 255 254 257 256 250 251 255 254 254 254 257 259 258 258 258 256 255 255 252 250 250 249 247 246 249 254 259 258 247 245 247 249 254 258 262 269 271 271 274 278 281 285 285
230 231 231 231 232 234 235 235 237 238 239 240 241 242 243 245 245 244 247 250 252 253 255 254 250 248 249 250 251 249 247 247 246 246 246 246 246 247 250 253 254 256 258 257 256 255 255 259 258 253 252 253 250 253 258 256 253 253 253 251 250 253 254 251 250 249 249 249 251 253 258 262 261 255 254 253 253 257 258 261 269 274 276 279 280 280 283 285
230 231 231 231 232 233 234 235 236 237 237 237 239 240 241 242 242 243 246 249 250 252 254 250 248 249 249 248 248 246 245 244 244 245 244 243 243 245 249 253 253 254 256 257 256 256 256 259 260 254 250 250 249 252 256 251 246 248 250 249 247 250 252 251 249 248 247 249 253 258 263 266 265 260 260 260 259 260 263 266 271 277 283 286 285 284 284 286
229 230 230 230 231 232 233 233 234 235 235 236 236 237 238 239 239 241 244 247 249 252 252 250 250 250 249 247 247 246 245 244 244 244 243 241 243 245 247 250 251 253 256 259 258 257 256 257 258 254 248 250 249 248 251 251 247 245 247 249 248 249 251 249 245 246 245 246 251 257 263 268 268 261 261 264 263 262 266 273 277 283 289 290 288 288 287 289
228 228 229 230 231 231 232 233 233 234 234 233 233 235 236 236 238 240 243 246 248 250 251 251 250 249 248 247 246 244 243 242 242 243 243 241 242 244 246 249 251 254 257 260 260 258 257 256 256 255 251 250 248 244 246 250 248 243 245 250 252 253 254 251 247 246 245 245 247 252 262 271 274 269 268 267 266 266 271 278 283 288 290 288 288 289 291 292
227 227 227 229 229 230 230 231 231 230 230 230 231 233 234 234 236 239 241 244 246 248 251 252 250 249 247 246 243 241 242 242 242 242 242 242 242 242 246 250 252 254 257 260 261 260 258 256 254 254 251 248 246 244 245 247 247 245 244 248 253 255 257 255 253 251 250 250 249 254 267 278 278 276 274 269 268 271 277 283 288 292 291 289 289 292 293 293
226 226 226 228 228 228 229 228 227 226 226 228 229 229 231 233 235 237 240 242 245 247 250 251 251 250 247 244 241 240 241 240 241 241 241 242 242 241 245 250 253 255 257 261 263 261 259 257 253 250 249 247 243 242 244 246 247 247 245 247 251 254 256 257 256 255 253 254 256 263 274 279 272 267 266 269 275 280 282 284 288 292 292 291 291 293 293 293
224 224 225 226 225 224 224 224 224 225 227 229 229 229 231 233 234 236 239 241 243 245 248 251 252 248 243 241 239 238 239 239 240 241 241 242 243 243 245 250 253 255 258 263 264 263 262 258 252 249 248 244 240 241 244 244 244 245 245 247 252 256 259 258 256 257 256 258 263 271 276 275 268 263 265 272 280 283 283 285 288 290 291 290 290 292 293 293
223 222 223 224 223 221 222 221 222 223 223 224 224 226 229 231 232 235 237 238 241 244 247 251 250 246 242 241 239 237 237 238 239 241 241 241 242 243 245 250 254 256 259 263 264 264 262 258 252 249 246 241 237 238 243 244 243 244 245 247 253 259 262 260 258 258 256 260 268 272 272 275 275 273 274 277 278 281 286 291 293 292 291 291 292 294 295 295
220 220 221 221 219 219 220 220 220 219 219 219 221 224 227 229 231 233 235 237 239 243 246 248 247 244 242 240 238 236 236 237 238 239 241 241 242 243 245 250 255 259 261 264 263 261 259 256 251 246 242 238 234 236 243 246 246 248 247 246 252 259 262 263 260 258 258 265 273 272 270 277 281 280 280 282 285 288 291 292 293 293 293 294 295 296 297 298
218 218 219 220 218 218 219 218 218 217 218 219 221 224 228 230 231 233 235 236 239 241 244 246 247 244 241 239 237 235 233 235 236 236 238 241 244 246 248 251 255 259 261 263 263 261 259 255 251 246 240 234 232 234 241 244 245 247 247 247 251 257 261 265 267 268 271 275 274 271 272 279 282 282 285 290 293 293 291 291 292 293 295 296 296 297 299 299
217 218 218 218 217 218 218 217 216 216 218 220 221 223 227 229 230 232 234 235 236 239 242 246 247 245 241 239 237 232 231 234 237 237 239 242 246 248 250 252 255 258 259 260 262 262 260 255 250 245 238 233 232 233 237 240 243 245 245 247 250 253 257 264 269 273 278 274 271 274 278 280 281 283 287 290 292 292 293 293 294 295 296 297 298 299 300 299
216 216 216 215 215 215 216 216 216 217 218 219 221 224 227 228 230 231 233 234 235 238 242 245 246 244 241 239 235 230 229 232 234 236 238 242 244 245 246 250 253 255 255 256 258 259 258 254 249 243 236 231 231 233 232 235 239 241 243 245 247 251 254 256 261 266 272 278 284 288 288 284 283 284 286 288 291 293 294 295 296 298 299 299 299 299 298 299
214 214 212 210 209 210 211 212 213 215 217 219 221 223 226 228 230 231 232 234 235 237 240 244 246 244 241 238 233 227 227 230 234 237 238 239 240 240 241 246 252 255 256 256 259 259 257 254 252 245 237 230 231 234 232 232 237 240 245 250 251 253 255 254 257 260 261 274 287 292 290 287 288 290 291 293 296 297 297 298 299 299 299 298 297 297 298 299
Height
10976 10978 10981 10982 10984 10985 10986 10987 10988 10990 10991 10992 10993 10994 10995 10996 10997 10997 10998 10999 11000 11001 11003 11004 11005 11006 11007 11008 11009 11011 11012 11013 11014 11015 11015 11016 11016 11016 11016 11017 11018 11019 11020 11020 11020 11020 11022 11020 11017 11017 11016 11016 11016 11016 11016 11017 11017 11018 11018 11017 11016 11016 11015 11014 11013 11012 11011 11009 11009 11008 11008 11006 11006 11005 11003 11002 11001 11000 10999 10997 10996 10995 10994 10993 10992 10991 10990 10990
10973 10974 10977 10979 10981 10982 10983 10984 10986 10987 10988 10989 10991 10992 10993 10994 10995 10995 10996 10997 10998 10999 11000 11001 11003 11004 11006 11006 11008 11009 11010 11011 11012 11013 11014 11014 11015 11015 11015 11015 11016 11017 11018 11019 11019 11018 11020 11020 11017 11015 11014 11014 11015 11015 11015 11016 11016 11017 11017 11016 11015 11014 11013 11012 11011 11011 11010 11009 11007 11006 11006 11005 11005 11004 11001 11001 11001 10999 10998 10997 10995 10994 10993 10992 10991 10990 10989 10988
10969 10971 10973 10975 10977 10979 10980 10981 10983 10984 10985 10986 10988 10989 10990 10991 10992 10993 10994 10995 10995 10996 10997 10999 11000 11002 11003 11004 11005 11007 11008 11009 11010 11011 11012 11012 11013 11013 11013 11014 11014 11015 11016 11018 11018 11017 11017 11018 11017 11014 11013 11013 11013 11014 11014 11014 11014 11015 11015 11014 11014 11012 11011 11010 11009 11009 11008 11007 11005 11004 11005 11004 11003 11002 11000 10999 10998 10997 10996 10995 10994 10993 10992 10991 10989 10988 10987 10986
10966 10967 10969 10971 10973 10975 10977 10979 10980 10981 10982 10984 10985 10986 10988 10989 10990 10991 10992 10993 10993 10994 10995 10996 10997 10999 11001 11002 11003 11004 11006 11007 11008 11009 11010 11010 11011 11011 11011 11012 11013 11013 11014 11016 11017 11017 11015 11015 11015 11013 11013 11012 11012 11012 11012 11012 11013 11013 11013 11012 11011 11010 11009 11008 11007 11007 11007 11006 11004 11003 11004 11004 11002 11000 10999 10998 10997 10996 10994 10994 10993 10992 10991 10990 10988 10987 10986 10985
10962 10964 10965 10967 10969 10971 10973 10975 10977 10978 10979 10981 10982 10983 10985 10986 10987 10988 10989 10990 10991 10992 10992 10993 10994 10996 10998 11000 11001 11002 11004 11004 11005 11006 11007 11008 11009 11009 11009 11010 11011 11012 11012 11013 11015 11017 11014 11013 11014 11012 11011 11011 11011 11011 11010 11010 11011 11011 11010 11009 11009 11008 11007 11006 11005 11005 11005 11004 11004 11003 11003 11002 11000 10999 10998 10997 10996 10995 10993 10992 10992 10991 10990 10988 10987 10986 10985 10983
10958 10960 10962 10964 10965 10967 10969 10971 10973 10975 10976 10977 10979 10980 10982 10983 10984 10986 10987 10987 10988 10989 10990 10991 10992 10993 10994 10997 10998 11000 11001 11002 11003 11004 11005 11005 11006 11007 11007 11008 11009 11010 11010 11010 11012 11015 11013 11012 11012 11011 11010 11010 11009 11009 11008 11009 11010 11009 11008 11007 11007 11006 11005 11004 11003 11003 11003 11002 11002 11000 10999 10999 10998 10997 10997 10996 10995 10994 10991 10990 10990 10989 10988 10987 10985 10984 10984 10982
10954 10956 10958 10960 10962 10963 10965 10967 10969 10971 10973 10974 10975 10977 10978 10980 10981 10983 10984 10985 10986 10986 10987 10988 10989 10990 10992 10993 10995 10997 10998 10999 11000 11001 11002 11003 11004 11005 11005 11006 11007 11008 11008 11008 11009 11011 11011 11011 11011 11009 11008 11009 11008 11008 11007 11008 11008 11007 11006 11005 11004 11003 11002 11002 11001 11001 11001 11000 10999 10998 10997 10996 10996 10995 10995 10993 10992 10991 10989 10988 10988 10987 10986 10985 10984 10984 10983 10982
10950 10952 10954 10956 10958 10960 10961 10963 10965 10967 10969 10971 10972 10973 10975 10976 10978 10979 10981 10982 10983 10984 10985 10986 10987 10988 10989 10990 10992 10993 10995 10996 10998 10999 11000 11000 11001 11002 11003 11004 11005 11006 11006 11007 11007 11007 11008 11008 11009 11008 11007 11007 11007 11006 11006 11006 11006 11005 11004 11002 11002 11001 11001 11000 11000 11000 10999 10998 10996 10995 10995 10995 10994 10994 10992 10991 10990 10989 10987 10986 10986 10985 10984 10983 10983 10982 10982 10981
10946 10948 10950 10952 10954 10956 10958 10959 10961 10963 10965 10967 10968 10970 10971 10973 10974 10976 10977 10979 10980 10981 10982 10983 10984 10985 10986 10987 10988 10990 10991 10993 10994 10996 10997 10998 10998 10999 11000 11001 11002 11003 11004 11005 11005 11005 11005 11005 11006 11006 11006 11006 11005 11005 11004 11004 11004 11003 11002 11000 11000 11000 10999 10999 10999 10999 10998 10996 10994 10993 10993 10993 10993 10992 10991 10989 10988 10987 10987 10986 10985 10984 10982 10981 10980 10980 10979 10978
10942 10944 10945 10947 10950 10952 10954 10956 10957 10959 10961 10962 10964 10966 10968 10969 10971 10972 10974 10975 10977 10978 10979 10980 10981 10983 10984 10985 10985 10986 10988 10989 10990 10992 10994 10995 10996 10996 10997 10998 10999 11000 11002 11002 11003 11002 11002 11003 11003 11003 11003 11003 11003 11004 11004 11002 11001 11001 11000 10999 10999 10998 10997 10997 10997 10997 10996 10994 10992 10992 10991 10991 10991 10991 10990 10988 10988 10987 10986 10985 10984 10983 10981 10980 10979 10977 10977 10976
10937 10939 10941 10943 10945 10947 10949 10951 10953 10955 10957 10958 10960 10962 10964 10966 10967 10968 10970 10971 10973 10974 10976 10977 10978 10980 10981 10982 10982 10983 10985 10986 10987 10989 10991 10992 10993 10993 10994 10995 10996 10997 10999 11000 11000 11000 11000 11000 11000 11000 11001 11001 11001 11002 11002 11001 11000 10999 10998 10997 10997 10997 10996 10996 10996 10996 10994 10992 10990 10990 10990 10989 10989 10990 10990 10989 10988 10987 10985 10984 10983 10982 10981 10981 10979 10977 10976 10975
10933 10935 10937 10939 10940 10942 10945 10947 10949 10951 10952 10954 10956 10958 10960 10962 10963 10965 10966 10967 10969 10971 10972 10974 10975 10977 10979 10979 10980 10980 10982 10983 10983 10985 10986 10989 10991 10991 10991 10992 10993 10994 10996 10997 10997 10998 10998 10998 10998 10998 10998 10998 10998 10999 10999 10999 10998 10998 10997 10995 10994 10994 10994 10995 10995 10994 10992 10990 10989 10989 10988 10988 10988 10988 10988 10988 10987 10986 10984 10983 10982 10981 10981 10981 10980 10978 10975 10973
10928 10930 10932 10934 10936 10938 10940 10942 10945 10946 10948 10950 10952 10954 10955 10957 10959 10960 10962 10963 10965 10966 10968 10970 10972 10974 10976 10977 10977 10977 10979 10980 10980 10981 10982 10985 10987 10988 10989 10989 10990 10991 10993 10994 10995 10995 10995 10995 10995 10995 10996 10995 10996 10996 10996 10996 10996 10996 10995 10993 10992 10991 10992 10993 10994 10993 10990 10988 10987 10987 10986 10987 10987 10986 10986 10985 10984 10984 10983 10982 10981 10980 10979 10978 10978 10977 10974 10972
10923 10925 10927 10929 10931 10933 10935 10938 10940 10942 10944 10946 10947 10949 10951 10952 10954 10956 10958 10959 10961 10962 10964 10966 10968 10971 10972 10973 10974 10973 10977 10978 10977 10978 10979 10981 10983 10985 10986 10986 10987 10988 10989 10991 10992 10992 10992 10993 10993 10993 10993 10993 10993 10993 10993 10994 10993 10993 10993 10991 10989 10989 10989 10991 10991 10990 10988 10987 10985 10985 10985 10985 10985 10984 10983 10982 10982 10982 10981 10980 10979 10977 10976 10975 10975 10975 10973 10971
10918 10920 10922 10924 10926 10929 10931 10933 10935 10937 10939 10941 10943 10944 10946 10948 10949 10951 10953 10955 10957 10958 10960 10962 10964 10966 10967 10971 10971 10969 10973 10975 10975 10976 10976 10977 10979 10981 10983 10983 10984 10985 10986 10987 10988 10989 10990 10990 10990 10990 10991 10990 10990 10991 10990 10991 10991 10991 10991 10989 10988 10987 10987 10988 10990 10988 10986 10985 10984 10984 10984 10983 10983 10982 10980 10980 10980 10979 10978 10977 10976 10974 10972 10972 10973 10973 10972 10969
10913 10915 10917 10919 10922 10924 10926 10929 10931 10933 10935 10936 10938 10940 10941 10943 10945 10946 10948 10950 10952 10953 10956 10957 10959 10962 10964 10967 10965 10966 10971 10972 10972 10972 10972 10974 10976 10977 10979 10980 10981 10982 10983 10984 10985 10986 10987 10987 10988 10987 10988 10988 10988 10988 10988 10988 10989 10988 10988 10988 10986 10985 10985 10985 10987 10988 10984 10982 10983 10983 10983 10982 10981 10979 10978 10978 10978 10976 10975 10974 10973 10971 10970 10969 10970 10971 10970 10968
10908 10910 10913 10914 10917 10919 10922 10924 10926 10928 10930 10932 10933 10935 10937 10938 10940 10942 10944 10946 10947 10949 10951 10953 10955 10957 10959 10961 10961 10964 10968 10967 10966 10967 10969 10972 10972 10973 10975 10977 10978 10979 10980 10980 10981 10982 10984 10985 10985 10985 10984 10985 10985 10985 10986 10986 10986 10986 10985 10985 10984 10984 10983 10983 10984 10986 10983 10980 10981 10981 10980 10980 10979 10977 10975 10974 10974 10974 10973 10973 10970 10968 10968 10968 10968 10968 10967 10967
10903 10906 10908 10910 10912 10914 10917 10919 10922 10923 10925 10927 10929 10930 10932 10934 10935 10937 10939 10941 10942 10944 10946 10949 10951 10951 10954 10956 10956 10961 10965 10962 10961 10964 10968 10968 10968 10969 10970 10973 10975 10976 10976 10977 10977 10979 10981 10982 10982 10982 10981 10982 10982 10982 10983 10984 10984 10983 10982 10981 10981 10979 10980 10981 10981 10982 10981 10979 10979 10978 10976 10976 10976 10975 10972 10971 10971 10972 10972 10970 10968 10966 10966 10967 10967 10966 10965 10964
10898 10900 10902 10904 10906 10909 10912 10914 10917 10918 10920 10922 10924 10926 10927 10929 10931 10933 10934 10936 10937 10939 10943 10946 10945 10946 10951 10951 10951 10957 10960 10957 10957 10961 10964 10963 10965 10966 10966 10969 10970 10971 10973 10973 10974 10976 10978 10979 10979 10979 10979 10979 10980 10979 10980 10981 10981 10980 10979 10978 10976 10975 10975 10977 10978 10978 10979 10978 10977 10976 10974 10973 10973 10971 10968 10968 10969 10970 10969 10966 10965 10963 10963 10965 10965 10965 10964 10963
10893 10895 10897 10899 10901 10904 10906 10909 10911 10913 10915 10917 10919 10921 10922 10924 10927 10929 10929 10931 10933 10935 10939 10940 10939 10943 10947 10944 10947 10954 10953 10951 10954 10957 10957 10959 10961 10962 10963 10965 10965 10967 10968 10968 10971 10973 10974 10975 10975 10976 10977 10977 10977 10976 10976 10977 10978 10977 10977 10975 10974 10973 10972 10972 10974 10975 10975 10975 10975 10973 10971 10970 10971 10967 10964 10964 10965 10966 10967 10964 10962 10961 10962 10963 10963 10963 10963 10963
10888 10890 10892 10894 10896 10899 10901 10904 10906 10908 10910 10912 10914 10916 10917 10919 10923 10924 10924 10927 10928 10930 10934 10934 10934 10939 10941 10940 10944 10947 10946 10948 10951 10950 10952 10955 10956 10958 10960 10961 10961 10962 10963 10964 10967 10969 10970 10970 10970 10973 10974 10974 10973 10973 10973 10973 10973 10974 10974 10973 10971 10971 10970 10970 10971 10971 10972 10972 10972 10970 10968 10967 10969 10966 10961 10961 10963 10964 10965 10963 10962 10962 10963 10962 10962 10963 10963 10963
10883 10886 10888 10890 10892 10894 10897 10900 10902 10904 10905 10907 10909 10911 10913 10915 10918 10919 10920 10922 10923 10926 10929 10929 10930 10933 10935 10937 10940 10940 10941 10943 10943 10944 10948 10951 10951 10954 10956 10957 10957 10958 10958 10960 10962 10964 10966 10965 10966 10969 10970 10970 10970 10970 10969 10969 10970 10970 10970 10969 10969 10967 10967 10967 10968 10969 10969 10970 10969 10969 10967 10965 10966 10964 10959 10959 10962 10964 10964 10962 10962 10963 10961 10961 10963 10963 10963 10964
10879 10882 10883 10885 10887 10890 10892 10895 10897 10900 10901 10903 10905 10906 10908 10911 10913 10915 10916 10918 10919 10921 10923 10924 10926 10928 10930 10933 10934 10935 10935 10936 10938 10940 10944 10946 10946 10948 10951 10952 10953 10955 10955 10956 10957 10960 10961 10960 10961 10965 10967 10967 10967 10966 10966 10966 10966 10966 10966 10966 10965 10964 10964 10964 10966 10967 10967 10967 10967 10966 10965 10963 10962 10962 10960 10960 10961 10964 10964 10960 10960 10961 10959 10960 10962 10961 10962 10964
10875 10877 10879 10881 10883 10885 10888 10891 10893 10895 10897 10899 10901 10902 10905 10907 10909 10911 10912 10913 10914 10917 10918 10920 10922 10923 10926 10928 10928 10928 10928 10932 10935 10936 10939 10941 10940 10943 10945 10947 10948 10951 10952 10951 10952 10955 10956 10955 10956 10961 10963 10962 10962 10963 10963 10963 10963 10963 10963 10962 10961 10962 10962 10961 10962 10963 10964 10964 10964 10962 10962 10961 10959 10959 10960 10960 10961 10963 10961 10957 10956 10957 10958 10958 10959 10961 10963 10966
10870 10872 10875 10877 10879 10882 10884 10886 10889 10891 10893 10895 10896 10898 10901 10903 10905 10907 10908 10908 10910 10913 10914 10916 10918 10919 10921 10922 10922 10923 10925 10928 10929 10931 10936 10935 10934 10937 10939 10941 10943 10945 10947 10947 10949 10951 10952 10950 10952 10956 10958 10957 10958 10959 10960 10961 10960 10959 10959 10958 10957 10958 10959 10958 10958 10959 10959 10960 10960 10958 10958 10958 10957 10957 10957 10959 10961 10958 10955 10954 10952 10953 10956 10955 10957 10961 10964 10968
10865 10867 10870 10872 10875 10878 10879 10882 10885 10887 10889 10891 10892 10894 10896 10899 10901 10902 10904 10904 10906 10909 10909 10912 10914 10915 10917 10917 10918 10920 10921 10924 10924 10926 10930 10927 10927 10932 10934 10936 10939 10939 10941 10943 10946 10948 10947 10945 10947 10951 10952 10953 10954 10954 10955 10956 10956 10956 10955 10953 10953 10954 10955 10955 10955 10955 10955 10955 10955 10955 10956 10955 10954 10954 10954 10955 10957 10955 10952 10952 10950 10950 10953 10954 10955 10959 10965 10967
10860 10863 10865 10868 10871 10873 10875 10878 10880 10883 10885 10886 10888 10890 10892 10895 10896 10898 10900 10899 10903 10907 10905 10908 10910 10910 10912 10914 10915 10916 10918 10921 10919 10920 10923 10921 10924 10929 10928 10931 10933 10933 10935 10939 10942 10943 10941 10941 10943 10946 10947 10948 10949 10949 10950 10952 10952 10952 10952 10950 10949 10950 10951 10951 10951 10951 10951 10951 10951 10952 10953 10952 10951 10950 10948 10950 10953 10953 10951 10949 10949 10949 10949 10950 10950 10955 10962 10954
10855 10858 10861 10864 10866 10869 10871 10874 10876 10879 10880 10882 10884 10886 10888 10890 10891 10894 10894 10895 10902 10904 10899 10902 10906 10906 10908 10910 10911 10914 10916 10916 10913 10916 10919 10918 10921 10924 10923 10925 10928 10928 10931 10935 10937 10936 10937 10938 10939 10941 10943 10942 10943 10945 10946 10948 10948 10948 10948 10946 10946 10947 10947 10947 10947 10948 10948 10948 10947 10948 10949 10949 10948 10946 10944 10946 10949 10949 10946 10944 10945 10945 10944 10945 10946 10949 10951 10937
10851 10854 10857 10860 10862 10865 10867 10870 10872 10874 10876 10879 10880 10882 10885 10886 10887 10890 10889 10892 10899 10898 10894 10897 10902 10903 10904 10906 10908 10911 10912 10910 10911 10915 10914 10912 10917 10919 10918 10921 10923 10924 10926 10930 10931 10930 10932 10934 10935 10937 10937 10937 10939 10941 10942 10943 10943 10943 10943 10943 10943 10943 10943 10944 10944 10944 10945 10944 10943 10943 10945 10945 10945 10944 10943 10944 10944 10943 10941 10941 10942 10941 10940 10941 10941 10942 10941 10931
10847 10850 10852 10855 10858 10860 10863 10865 10868 10870 10873 10875 10876 10879 10881 10882 10884 10885 10885 10890 10894 10892 10890 10894 10898 10899 10900 10902 10904 10906 10907 10906 10909 10911 10908 10909 10914 10915 10915 10917 10919 10920 10922 10925 10925 10924 10928 10930 10931 10932 10932 10933 10936 10936 10937 10938 10938 10938 10939 10939 10940 10939 10939 10941 10940 10940 10941 10941 10940 10941 10941 10941 10942 10942 10943 10943 10940 10937 10938 10938 10939 10938 10937 10936 10935 10936 10935 10930
10842 10845 10848 10850 10853 10855 10858 10860 10863 10866 10869 10871 10873 10875 10877 10878 10881 10880 10882 10887 10887 10886 10888 10891 10893 10894 10895 10897 10899 10901 10902 10903 10905 10906 10905 10908 10910 10910 10912 10914 10915 10916 10918 10920 10919 10920 10924 10927 10926 10927 10928 10930 10931 10931 10932 10932 10933 10933 10934 10935 10936 10936 10936 10937 10937 10936 10937 10937 10938 10938 10938 10938 10938 10938 10939 10940 10936 10935 10935 10934 10934 10935 10934 10933 10932 10931 10929 10927
10836 10839 10842 10845 10847 10850 10853 10855 10859 10862 10865 10867 10869 10871 10873 10876 10876 10876 10879 10881 10880 10883 10887 10888 10888 10889 10891 10893 10895 10896 10898 10900 10901 10902 10903 10905 10906 10907 10909 10910 10911 10913 10913 10914 10915 10917 10920 10922 10921 10922 10924 10926 10926 10927 10927 10927 10928 10929 10930 10931 10932 10932 10933 10933 10933 10933 10934 10933 10934 10935 10934 10935 10934 10934 10936 10936 10933 10932 10933 10931 10930 10931 10931 10930 10930 10927 10925 10924
10831 10833 10837 10840 10842 10845 10848 10850 10854 10858 10860 10863 10865 10867 10870 10871 10871 10874 10875 10874 10877 10882 10883 10883 10883 10885 10887 10888 10891 10892 10893 10896 10897 10898 10900 10901 10903 10904 10905 10907 10908 10908 10908 10911 10912 10913 10915 10917 10917 10919 10922 10923 10923 10923 10922 10923 10924 10925 10926 10927 10928 10928 10929 10929 10929 10930 10930 10930 10930 10931 10930 10930 10931 10933 10933 10931 10929 10929 10928 10927 10927 10928 10927 10927 10927 10925 10922 10921
10824 10827 10831 10835 10837 10840 10843 10846 10850 10853 10855 10859 10861 10864 10866 10866 10868 10870 10869 10870 10876 10878 10877 10879 10880 10881 10883 10885 10886 10887 10889 10892 10893 10895 10897 10898 10900 10901 10902 10904 10904 10903 10905 10908 10908 10909 10911 10912 10913 10916 10919 10918 10917 10918 10918 10920 10921 10921 10921 10923 10924 10924 10924 10925 10925 10926 10927 10926 10927 10926 10925 10926 10929 10931 10930 10927 10925 10925 10923 10921 10921 10923 10923 10923 10923 10921 10918 10917
10817 10820 10825 10828 10831 10835 10838 10841 10845 10848 10851 10854 10857 10860 10861 10861 10863 10864 10864 10868 10874 10873 10873 10875 10876 10877 10879 10881 10882 10883 10885 10888 10889 10891 10894 10895 10896 10898 10898 10900 10900 10899 10902 10904 10904 10905 10907 10907 10910 10914 10914 10913 10914 10915 10916 10917 10917 10917 10917 10919 10919 10919 10921 10922 10921 10922 10923 10923 10923 10922 10921 10923 10926 10926 10925 10924 10921 10919 10919 10917 10915 10916 10917 10917 10917 10916 10914 10914
10810 10815 10820 10822 10825 10829 10832 10836 10840 10843 10847 10850 10853 10856 10855 10856 10859 10860 10863 10868 10870 10868 10869 10870 10871 10873 10876 10876 10878 10879 10881 10884 10886 10888 10889 10891 10893 10894 10895 10896 10896 10896 10898 10899 10900 10902 10903 10903 10907 10911 10909 10909 10912 10912 10913 10914 10913 10913 10914 10914 10914 10916 10918 10918 10917 10918 10919 10919 10918 10917 10917 10919 10922 10922 10921 10920 10918 10916 10916 10914 10913 10913 10911 10911 10911 10911 10911 10911
10803 10808 10813 10815 10819 10823 10826 10830 10835 10838 10842 10847 10849 10850 10850 10852 10855 10858 10862 10863 10862 10863 10864 10866 10868 10870 10871 10872 10874 10875 10878 10880 10882 10884 10886 10888 10889 10890 10892 10892 10893 10893 10894 10895 10897 10899 10900 10900 10904 10908 10905 10906 10909 10909 10910 10910 10910 10911 10911 10910 10911 10913 10914 10915 10914 10914 10916 10916 10915 10914 10913 10913 10917 10920 10919 10916 10915 10913 10912 10911 10911 10911 10909 10908 10908 10908 10908 10908
10796 10802 10806 10808 10813 10817 10820 10825 10830 10833 10839 10843 10844 10844 10846 10848 10852 10856 10857 10857 10858 10860 10861 10862 10865 10866 10867 10868 10869 10871 10874 10876 10878 10880 10883 10884 10886 10887 10888 10889 10890 10890 10890 10892 10894 10897 10897 10896 10901 10904 10902 10904 10907 10906 10906 10906 10907 10908 10908 10908 10909 10909 10910 10911 10910 10910 10912 10913 10912 10911 10909 10908 10914 10917 10916 10913 10912 10910 10908 10907 10908 10909 10908 10907 10906 10906 10906 10905
10789 10795 10797 10801 10807 10811 10815 10821 10825 10830 10836 10838 10837 10838 10841 10844 10850 10852 10851 10852 10855 10856 10856 10859 10861 10861 10862 10863 10865 10868 10871 10873 10875 10877 10878 10880 10883 10884 10884 10885 10887 10887 10887 10890 10892 10894 10894 10893 10897 10900 10900 10902 10904 10902 10902 10905 10905 10905 10905 10906 10906 10906 10906 10907 10907 10908 10909 10909 10909 10908 10905 10906 10911 10913 10912 10911 10909 10906 10904 10904 10905 10906 10906 10906 10906 10905 10904 10903
10782 10786 10789 10797 10803 10806 10811 10816 10821 10827 10831 10831 10831 10834 10837 10841 10846 10847 10846 10849 10851 10852 10854 10857 10856 10856 10858 10860 10863 10865 10867 10869 10871 10872 10875 10878 10880 10880 10880 10883 10884 10884 10885 10887 10889 10891 10891 10891 10894 10897 10898 10899 10900 10899 10901 10903 10902 10901 10902 10903 10903 10903 10903 10904 10905 10905 10906 10905 10905 10905 10902 10904 10908 10909 10907 10907 10905 10903 10900 10901 10903 10903 10903 10904 10903 10902 10901 10900
10774 10778 10785 10793 10796 10799 10806 10812 10817 10821 10823 10824 10827 10830 10833 10838 10841 10842 10843 10846 10847 10848 10851 10852 10851 10852 10855 10857 10858 10861 10863 10866 10867 10869 10872 10875 10875 10876 10879 10880 10880 10881 10881 10883 10886 10888 10889 10889 10891 10894 10896 10895 10896 10898 10898 10898 10899 10899 10899 10899 10900 10900 10900 10902 10902 10902 10903 10903 10903 10902 10900 10901 10905 10905 10903 10903 10902 10900 10898 10899 10901 10901 10901 10900 10899 10898 10897 10896
10766 10771 10779 10785 10788 10794 10801 10807 10811 10814 10817 10820 10823 10825 10829 10834 10836 10837 10839 10841 10843 10846 10847 10847 10848 10849 10851 10853 10855 10858 10861 10862 10864 10865 10868 10871 10871 10874 10877 10876 10875 10878 10879 10880 10883 10885 10886 10887 10888 10890 10892 10892 10893 10896 10894 10894 10896 10897 10896 10896 10897 10897 10897 10899 10898 10898 10900 10900 10900 10899 10896 10898 10903 10903 10901 10900 10899 10897 10896 10897 10899 10899 10898 10897 10895 10894 10894 10893
10756 10763 10773 10778 10782 10790 10796 10801 10806 10809 10812 10814 10816 10821 10826 10830 10831 10833 10835 10837 10840 10842 10842 10843 10845 10845 10847 10850 10852 10855 10856 10859 10861 10862 10864 10867 10868 10872 10873 10871 10871 10875 10877 10878 10880 10882 10883 10884 10885 10887 10889 10889 10891 10892 10891 10891 10893 10894 10894 10895 10895 10895 10895 10896 10896 10895 10896 10897 10897 10896 10893 10897 10901 10902 10900 10898 10894 10894 10895 10896 10896 10896 10895 10894 10892 10892 10891 10890
10748 10758 10767 10770 10776 10785 10791 10796 10800 10803 10805 10807 10812 10818 10822 10824 10827 10829 10831 10834 10837 10838 10839 10840 10841 10842 10844 10847 10849 10851 10853 10856 10858 10859 10861 10863 10865 10869 10868 10866 10869 10873 10874 10875 10877 10879 10880 10880 10882 10884 10885 10886 10887 10888 10888 10889 10891 10892 10893 10893 10894 10893 10893 10893 10893 10893 10894 10894 10893 10892 10892 10896 10899 10899 10897 10894 10891 10891 10893 10894 10894 10893 10892 10891 10889 10889 10888 10887
10743 10753 10760 10764 10773 10782 10786 10789 10792 10794 10798 10802 10808 10813 10816 10820 10823 10825 10827 10830 10833 10835 10836 10837 10838 10839 10842 10843 10845 10847 10849 10852 10854 10855 10857 10859 10862 10865 10864 10863 10866 10869 10871 10873 10874 10875 10876 10877 10879 10880 10881 10882 10884 10884 10885 10887 10889 10890 10890 10891 10891 10891 10891 10891 10891 10891 10892 10890 10889 10890 10892 10895 10896 10895 10893 10890 10888 10889 10890 10891 10891 10890 10889 10888 10886 10885 10885 10884
10736 10746 10753 10758 10767 10774 10777 10780 10785 10789 10794 10800 10806 10810 10812 10816 10819 10821 10824 10827 10829 10831 10832 10834 10835 10837 10838 10839 10842 10844 10846 10849 10850 10852 10854 10856 10858 10860 10860 10861 10864 10866 10869 10870 10871 10872 10872 10873 10874 10875 10877 10879 10880 10881 10882 10884 10886 10887 10887 10888 10889 10889 10889 10889 10888 10888 10888 10886 10886 10888 10890 10891 10892 10890 10888 10888 10888 10888 10888 10889 10888 10887 10886 10885 10883 10882 10881 10880
10730 10741 10746 10751 10760 10765 10767 10773 10779 10785 10791 10797 10802 10805 10807 10811 10814 10817 10820 10822 10825 10827 10829 10831 10832 10833 10834 10836 10839 10841 10843 10845 10847 10848 10851 10853 10854 10856 10857 10859 10861 10863 10866 10867 10868 10869 10868 10869 10871 10872 10873 10875 10876 10877 10879 10881 10883 10884 10885 10887 10887 10887 10887 10886 10885 10885 10884 10884 10885 10886 10887 10887 10887 10886 10884 10885 10886 10886 10886 10885 10885 10884 10882 10881 10880 10879 10878 10877
10724 10732 10735 10741 10751 10757 10762 10769 10775 10780 10785 10790 10794 10798 10802 10806 10810 10813 10816 10819 10821 10824 10826 10828 10828 10829 10831 10833 10836 10838 10840 10842 10844 10845 10847 10849 10850 10852 10855 10857 10858 10861 10863 10864 10865 10865 10864 10865 10866 10868 10870 10871 10873 10875 10876 10879 10881 10882 10883 10884 10884 10885 10884 10883 10882 10881 10881 10883 10884 10884 10884 10884 10884 10883 10882 10882 10883 10883 10883 10882 10881 10880 10878 10877 10876 10876 10875 10873
10715 10720 10726 10736 10747 10753 10758 10765 10770 10775 10780 10785 10790 10795 10799 10804 10807 10809 10812 10815 10818 10821 10823 10824 10825 10826 10828 10830 10832 10835 10837 10838 10839 10841 10843 10844 10847 10850 10853 10855 10856 10858 10859 10860 10861 10861 10861 10861 10862 10864 10866 10869 10871 10873 10874 10877 10878 10879 10880 10881 10882 10882 10881 10880 10879 10878 10881 10884 10881 10880 10881 10883 10882 10881 10880 10881 10881 10881 10880 10879 10878 10876 10875 10874 10873 10872 10871 10870
10704 10712 10723 10737 10746 10750 10754 10760 10765 10770 10776 10782 10788 10792 10795 10799 10803 10805 10808 10812 10814 10817 10819 10820 10822 10824 10825 10828 10830 10832 10834 10835 10837 10839 10840 10842 10845 10848 10850 10851 10853 10854 10855 10856 10857 10857 10857 10858 10860 10861 10863 10866 10869 10871 10872 10874 10875 10876 10877 10878 10878 10878 10877 10876 10876 10877 10881 10881 10878 10877 10880 10881 10881 10879 10879 10879 10879 10879 10878 10876 10875 10873 10872 10871 10869 10869 10867 10866
10698 10711 10725 10735 10741 10745 10751 10757 10763 10768 10774 10780 10785 10788 10791 10795 10798 10801 10805 10808 10811 10814 10816 10817 10819 10821 10823 10825 10826 10829 10831 10832 10833 10835 10837 10840 10843 10845 10846 10848 10849 10851 10852 10853 10854 10854 10854 10855 10857 10858 10861 10864 10867 10868 10869 10870 10870 10871 10873 10874 10874 10875 10874 10874 10875 10877 10879 10878 10876 10876 10878 10879 10879 10878 10878 10877 10876 10876 10874 10873 10872 10870 10869 10868 10866 10865 10864 10863
10693 10706 10717 10724 10731 10738 10745 10752 10759 10765 10771 10777 10780 10783 10787 10790 10794 10798 10801 10804 10808 10810 10812 10814 10816 10818 10820 10821 10823 10825 10827 10828 10830 10832 10836 10838 10840 10841 10844 10846 10846 10848 10849 10850 10851 10851 10852 10853 10854 10856 10859 10861 10864 10865 10865 10866 10867 10869 10871 10872 10872 10873 10872 10872 10874 10876 10877 10876 10876 10876 10876 10876 10877 10876 10876 10875 10874 10873 10871 10870 10869 10867 10866 10864 10863 10862 10860 10859